C/2011 KP36 ( Spacewatch )

Japanese version
Home page
Updated on September 22, 2018

---------------------------------------------------------------------

* Profile

Discovery Date May 21, 2011
Magnitude 20.4 mag
Discoverer T. H. Bressi (Kitt Peak)

* Pictures

* Orbital Elements

Epoch 2016 May 12.0 TT = JDT 2457520.5
T 2016 May 26.89720 TT                                  MPCW
q   4.8833081            (2000.0)            P               Q
z  +0.0260346      Peri.  180.59783     +0.99445340     +0.09830679
 +/-0.0000000      Node   173.40039     -0.09509841     +0.99227938
e   0.8728650      Incl.   18.98677     -0.04493019     +0.07561350
From 3239 observations 2011 May 21-2018 Mar. 14, mean residual 0".4.

* Finding Charts

* Magnitudes Graph

        m1 = 4.0 + 5 log d + 10.0 log r  [ ,0]  (             - 2016 May  26)
        m1 = 2.0 + 5 log d + 13.0 log r  [0, ]  (2016 May  26 -             )

---------------------------------------------------------------------

The orbital elements are published on M.P.E.C. 2018-F152.
The charts are made with StellaNavigator Ver.8 (AstroArts).
The magnitudes graphs are made with Comet for Windows.

---------------------------------------------------------------------

Copyright(C) Seiichi Yoshida (comet@aerith.net). All rights reserved.